Anoka County, MN

11:49 PM CST on February 20, 2018 (GMT -0600)
Anoka County / Blaine Airport

Weather History for KANE - November, 2013

Change the Weather History Date:

Monday, November 11, 2013

  Actual Average Record
Temperature  
Mean Temperature 24 °F -  
Max Temperature 37 °F 41 °F 62 °F (2007)
Min Temperature 12 °F 26 °F 12 °F (1997)
Degree Days  
Heating Degree Days 40    
Moisture  
Dew Point 16 °F    
Average Humidity 68    
Maximum Humidity 85    
Minimum Humidity 47    
Precipitation  
Precipitation 0.00 in - - ()
Sea Level Pressure  
Sea Level Pressure 30.39 in    
Wind  
Wind Speed 13 mph (NW)    
Max Wind Speed 22 mph    
Max Gust Speed 26 mph    
Visibility 10 miles    
Events Rain , Snow    
Averages and records for this station are not official NWS values.
T = Trace of Precipitation, MM = Missing Value Source: NWS Daily Summary

Daily Weather History Graph

Daily Weather History Graph

Search for Another Location

Airport or City:

Trip Planner

Search our weather history database for the weather conditions in past years. The results will help you decide how hot, cold, wet, or windy it might be!

Date:

Astronomy

Nov. 11, 2013 Rise Set
Actual Time 7:05 AM CST 4:47 PM CST
Civil Twilight 6:34 AM CST 5:19 PM CST
Nautical Twilight 5:58 AM CST 5:54 PM CST
Astronomical Twilight 5:24 AM CST 6:28 PM CST
Moon 1:43 PM CST (11/11) 12:35 AM CST (11/11)
Length of Visible Light 10h 44m
Length of Day
9h 41m
Waxing Gibbous, 66% of the Moon is Illuminated
Nov 11
Waxing Gibbous
Nov 17
Full
Nov 25
Last Quarter
Dec 2
New
Dec 9
First Quarter

Hourly Weather History & Observations

Time (CST) Temp. Windchill Dew Point Humidity Pressure Visibility Wind Dir Wind Speed Gust Speed Precip Events Conditions
12:13 AM 37.4 °F 31.4 °F 32.0 °F 81% 30.11 in 10.0 mi WNW 8.1 mph - N/A   Overcast
12:34 AM 37.4 °F 30.3 °F 32.0 °F 81% 30.11 in 10.0 mi NW 10.4 mph - N/A Rain Light Rain
12:54 AM 37.4 °F 28.9 °F 32.0 °F 81% 30.12 in 10.0 mi NW 13.8 mph - N/A Rain Light Rain
1:14 AM 37.4 °F 28.9 °F 30.2 °F 75% 30.12 in 10.0 mi NNW 13.8 mph 19.6 mph N/A   Overcast
1:33 AM 37.4 °F 28.9 °F 30.2 °F 75% 30.13 in 10.0 mi NNW 13.8 mph 20.7 mph N/A   Overcast
1:54 AM 37.4 °F 28.5 °F 30.2 °F 75% 30.13 in 10.0 mi NNW 15.0 mph 19.6 mph N/A   Overcast
2:14 AM 35.6 °F 24.2 °F 28.4 °F 75% 30.16 in 10.0 mi NNW 21.9 mph 26.5 mph N/A   Overcast
2:34 AM 33.8 °F 23.5 °F 28.4 °F 81% 30.17 in 10.0 mi North 16.1 mph - N/A Snow Light Snow
2:54 AM 32.0 °F 20.5 °F 24.8 °F 75% 30.18 in 10.0 mi NNW 18.4 mph 26.5 mph N/A   Overcast
3:14 AM 32.0 °F 20.5 °F 19.4 °F 60% 30.19 in 10.0 mi NW 18.4 mph 23.0 mph N/A   Overcast
3:34 AM 30.2 °F 19.3 °F 17.6 °F 60% 30.20 in 10.0 mi NNW 15.0 mph - N/A   Overcast
3:54 AM 30.2 °F 17.8 °F 15.8 °F 55% 30.21 in 10.0 mi NNW 19.6 mph 26.5 mph N/A   Overcast
4:14 AM 30.2 °F 18.1 °F 15.8 °F 55% 30.23 in 10.0 mi NNW 18.4 mph 24.2 mph N/A   Overcast
4:34 AM 28.4 °F 16.2 °F 17.6 °F 64% 30.23 in 10.0 mi NNW 17.3 mph 25.3 mph N/A   Overcast
4:54 AM 28.4 °F 16.6 °F 17.6 °F 64% 30.25 in 10.0 mi NNW 16.1 mph 21.9 mph N/A   Overcast
5:14 AM 28.4 °F 16.6 °F 17.6 °F 64% 30.26 in 10.0 mi NNW 16.1 mph - N/A   Overcast
5:34 AM 26.6 °F 13.4 °F 17.6 °F 69% 30.27 in 10.0 mi NNW 18.4 mph 23.0 mph N/A   Scattered Clouds
5:54 AM 26.6 °F 13.4 °F 15.8 °F 64% 30.28 in 10.0 mi NNW 18.4 mph 21.9 mph N/A   Scattered Clouds
6:14 AM 26.6 °F 15.2 °F 15.8 °F 64% 30.29 in 10.0 mi NW 13.8 mph - N/A   Clear
6:34 AM 24.8 °F 13.4 °F 15.8 °F 69% 30.31 in 10.0 mi North 12.7 mph - N/A   Mostly Cloudy
6:45 AM 24.8 °F 13.4 °F 15.8 °F 69% 30.31 in 10.0 mi North 12.7 mph 19.6 mph N/A   Overcast
6:54 AM 24.8 °F 12.4 °F 15.8 °F 69% 30.32 in 10.0 mi North 15.0 mph 19.6 mph N/A   Mostly Cloudy
7:55 AM 21.2 °F 7.3 °F 10.4 °F 63% 30.38 in 10.0 mi NNW 16.1 mph 20.7 mph N/A   Overcast
8:45 AM 21.2 °F 7.3 °F 12.2 °F 68% 30.40 in 10.0 mi NNW 16.1 mph 20.7 mph N/A   Overcast
9:45 AM 23.0 °F 9.6 °F 10.4 °F 59% 30.42 in 10.0 mi NNW 16.1 mph 20.7 mph N/A   Overcast
11:45 AM 26.6 °F 14.3 °F 10.4 °F 51% 30.46 in 10.0 mi NNW 16.1 mph 20.7 mph N/A   Scattered Clouds
12:55 PM 26.6 °F 14.3 °F 10.4 °F 51% 30.46 in 10.0 mi NNW 16.1 mph 23.0 mph N/A   Scattered Clouds
1:55 PM 28.4 °F 18.5 °F 10.4 °F 47% 30.47 in 10.0 mi NNW 11.5 mph 17.3 mph N/A   Scattered Clouds
2:45 PM 28.4 °F 16.6 °F 10.4 °F 47% 30.49 in 10.0 mi NNW 16.1 mph 21.9 mph N/A   Scattered Clouds
3:45 PM 26.6 °F 15.2 °F 10.4 °F 51% 30.51 in 10.0 mi NNW 13.8 mph 21.9 mph N/A   Scattered Clouds
4:45 PM 24.8 °F 14.0 °F 10.4 °F 54% 30.54 in 10.0 mi NNW 11.5 mph 17.3 mph N/A   Clear
5:45 PM 21.2 °F 9.5 °F 10.4 °F 63% 30.57 in 10.0 mi NNW 11.5 mph 17.3 mph N/A   Clear
6:45 PM 21.2 °F 9.5 °F 10.4 °F 63% 30.60 in 10.0 mi NW 11.5 mph - N/A   Clear
7:45 PM 19.4 °F 7.2 °F 10.4 °F 68% 30.63 in 10.0 mi NW 11.5 mph - N/A   Clear
8:50 PM 17.6 °F 5.0 °F 10.4 °F 73% 30.66 in 10.0 mi NW 11.5 mph - N/A   Clear
9:14 PM 17.6 °F 8.2 °F 10.4 °F 73% 30.67 in 10.0 mi NW 6.9 mph - N/A   Clear
9:34 PM 17.6 °F 9.3 °F 10.4 °F 73% 30.67 in 10.0 mi NW 5.8 mph - N/A   Clear
9:53 PM 15.8 °F 7.2 °F 10.4 °F 79% 30.67 in 10.0 mi NW 5.8 mph - N/A   Clear
10:14 PM 15.8 °F 8.6 °F 8.6 °F 73% 30.68 in 10.0 mi NW 4.6 mph - N/A   Clear
10:34 PM 15.8 °F 8.6 °F 8.6 °F 73% 30.69 in 10.0 mi WNW 4.6 mph - N/A   Clear
10:53 PM 14.0 °F 6.5 °F 8.6 °F 79% 30.69 in 10.0 mi WNW 4.6 mph - N/A   Clear
11:14 PM 14.0 °F 6.5 °F 8.6 °F 79% 30.69 in 10.0 mi WNW 4.6 mph - N/A   Clear
11:34 PM 12.2 °F 2.9 °F 8.6 °F 85% 30.70 in 10.0 mi WNW 5.8 mph - N/A   Clear
11:54 PM 12.2 °F 2.9 °F 8.6 °F 85% 30.70 in 10.0 mi West 5.8 mph - N/A   Clear